KT4ATL Weather Reports


time (UTC)temp
F
wind
direction
speed
knots
gust
knots
rain 1hr
in
rain 24hr
in
rain mn
in
humidity
%
barometer
mb
20260504150519 73 194 0.9 2.6 0.00 0.00 0.00 54 1014.0
20260504140517 68 152 0.0 1.7 0.00 0.00 0.00 60 1014.6
20260504130518 60 193 0.0 0.9 0.00 0.00 0.00 67 1015.2
20260504110529 46 0.0 0.0 0.00 0.00 0.00 91 1014.4
20260504100530 45 0.0 0.0 0.00 0.00 0.00 92 1014.3
20260504081518 43 0.0 0.0 0.00 0.00 0.00 94 1014.6
20260504080518 43 0.0 0.0 0.00 0.00 0.00 94 1014.6
20260504050518 45 0.0 0.0 0.00 0.00 0.00 88 1015.5
20260504045518 45 0.0 0.0 0.00 0.00 0.00 87 1015.6
20260504044539 46 0.0 0.0 0.00 0.00 0.00 87 1015.5
20260504043519 46 0.0 0.0 0.00 0.00 0.00 86 1015.6
20260504042519 46 0.0 0.0 0.00 0.00 0.00 86 1015.6
20260504041519 46 0.0 0.0 0.00 0.00 0.00 84 1015.6
20260504040519 47 0.0 0.0 0.00 0.00 0.00 84 1015.7
20260504035539 47 0.0 0.0 0.00 0.00 0.00 83 1015.7
20260504034520 47 0.0 0.0 0.00 0.00 0.00 82 1015.7
20260504033517 47 0.0 0.0 0.00 0.00 0.00 81 1015.7
20260504032517 48 0.0 0.0 0.00 0.00 0.00 80 1015.5
20260504031520 48 0.0 0.0 0.00 0.00 0.00 79 1015.6
20260504030517 49 0.0 0.0 0.00 0.00 0.00 79 1015.8
20260504025517 49 0.0 0.0 0.00 0.00 0.00 77 1015.8
20260504024518 50 0.0 0.0 0.00 0.00 0.00 76 1015.7
20260504023518 50 0.0 0.0 0.00 0.00 0.00 74 1015.7
20260504022518 51 0.0 0.0 0.00 0.00 0.00 73 1015.4
20260504021539 51 0.0 0.0 0.00 0.00 0.00 70 1015.3
20260504020518 52 0.0 0.0 0.00 0.00 0.00 68 1015.2
20260504015538 52 0.0 0.0 0.00 0.00 0.00 67 1015.1
20260504014516 53 0.0 0.0 0.00 0.00 0.00 64 1015.0
20260504013519 54 0.0 0.0 0.00 0.00 0.00 61 1014.9
20260504012519 55 0.0 0.0 0.00 0.00 0.00 58 1015.0
20260504011517 57 0.0 0.0 0.00 0.00 0.00 55 1015.0
20260504010519 58 0.0 0.0 0.00 0.00 0.00 53 1015.0
20260504005521 60 0.0 0.0 0.00 0.00 0.00 50 1014.9
20260504004521 61 151 0.0 0.9 0.00 0.00 0.00 47 1014.8
20260504003537 62 0.0 0.0 0.00 0.00 0.00 45 1014.8
20260504002517 63 166 0.0 1.7 0.00 0.00 0.00 43 1014.8
20260504001540 64 0.0 0.0 0.00 0.00 0.00 43 1014.9
20260504000520 66 182 0.0 1.7 0.00 0.00 0.00 40 1015.0
20260503235517 67 228 0.0 2.6 0.00 0.00 0.00 38 1015.1
20260503234518 69 241 0.0 1.7 0.00 0.00 0.00 38 1015.1
20260503233518 71 196 0.9 4.3 0.00 0.00 0.00 36 1015.0
20260503232518 72 224 0.9 2.6 0.00 0.00 0.00 35 1014.9
20260503231518 73 227 0.9 2.6 0.00 0.00 0.00 35 1014.8
20260503230518 74 218 0.9 3.5 0.00 0.00 0.00 35 1014.9
20260503225519 73 217 0.0 2.6 0.00 0.00 0.00 35 1015.0
20260503224519 73 239 0.0 1.7 0.00 0.01 0.00 35 1015.2
20260503223559 73 224 0.9 2.6 0.00 0.01 0.00 36 1015.3
20260503222519 73 216 0.9 2.6 0.00 0.01 0.00 36 1015.5
20260503221519 72 206 0.9 3.5 0.00 0.01 0.00 37 1015.7
20260503220517 72 255 0.9 2.6 0.00 0.01 0.00 37 1015.8
20260503215517 72 246 0.9 3.5 0.00 0.01 0.00 36 1015.7
20260503214517 72 255 0.9 3.5 0.00 0.01 0.00 36 1015.9
20260503213517 73 196 0.9 2.6 0.00 0.01 0.00 37 1016.1
20260503212518 73 220 0.9 3.5 0.00 0.01 0.00 37 1016.2
20260503211517 72 219 0.9 1.7 0.00 0.01 0.00 37 1016.3
20260503210520 72 251 0.9 3.5 0.00 0.01 0.00 37 1016.4
20260503205518 72 210 0.9 2.6 0.00 0.01 0.00 39 1016.6
20260503204518 72 235 0.9 2.6 0.00 0.01 0.00 38 1016.8
20260503203518 71 239 0.9 3.5 0.00 0.01 0.00 37 1017.1
20260503202518 71 189 0.9 2.6 0.00 0.01 0.00 38 1017.3
20260503201518 70 229 0.9 2.6 0.00 0.01 0.00 38 1017.4
20260503200519 70 85 0.9 1.7 0.00 0.01 0.00 38 1017.7
20260503195519 70 226 0.9 2.6 0.00 0.01 0.00 38 1017.8
20260503194539 69 231 0.9 3.5 0.00 0.01 0.00 40 1018.0
20260503193516 69 282 0.9 3.5 0.00 0.01 0.00 40 1018.2
20260503192519 69 192 1.7 3.5 0.00 0.01 0.00 39 1018.3
20260503191520 69 253 0.9 3.5 0.00 0.01 0.00 39 1018.4
20260503190520 68 221 0.9 3.5 0.00 0.01 0.00 40 1018.6
20260503185517 68 259 0.9 3.5 0.00 0.01 0.00 39 1018.8
20260503184517 67 222 0.9 3.5 0.00 0.01 0.00 40 1019.0
20260503183521 67 217 0.9 4.3 0.00 0.01 0.00 38 1019.2
20260503182517 67 225 0.9 5.2 0.00 0.01 0.00 41 1019.2
20260503181518 66 211 0.9 2.6 0.00 0.01 0.00 41 1019.2
20260503180538 66 272 0.9 2.6 0.00 0.01 0.00 41 1019.3
20260503175516 67 14 0.9 3.5 0.00 0.01 0.00 38 1019.5
20260503174516 67 245 0.9 2.6 0.00 0.01 0.00 38 1019.6
20260503173558 66 22 0.0 1.7 0.00 0.01 0.00 40 1019.8
20260503172517 64 221 0.9 2.6 0.00 0.01 0.00 40 1020.0
20260503171518 64 73 0.9 2.6 0.00 0.01 0.00 40 1020.2
20260503170519 63 210 0.9 3.5 0.00 0.01 0.00 43 1020.3